"2016-06-10 00:00:00",1709211,3.174,162.3,6.387,0.362,25.91,110.6996,26.69,27.8,23.57,0,111.5,12.96,27.54,124.3
"2016-06-10 00:00:30",1709212,4.215,175.2,4.034,0.365,25.95,110.6976,26.69,27.77,23.74,0,111.5,12.96,27.53,137.2
"2016-06-10 00:01:00",1709213,4.188,174.3,2.563,0.191,25.95,110.6791,26.64,27.74,23.56,0,111.5,12.97,27.48,136.3
"2016-06-10 00:01:30",1709214,3.581,176.6,3.434,0.281,25.96,110.6617,26.6,27.71,23.78,0,111.5,12.97,27.44,138.6
"2016-06-10 00:02:00",1709215,3.467,177.2,5.073,0.265,25.9,110.6373,26.53,27.68,23.64,0,111.5,12.97,27.38,139.2
"2016-06-10 00:02:30",1709216,3.039,173.8,3.755,0.23,25.84,110.6326,26.52,27.63,23.39,0,111.5,12.97,27.36,135.8
"2016-06-10 00:03:00",1709217,2.617,172.2,1.567,0.157,25.85,110.632,26.52,27.61,23.11,0,111.5,12.97,27.36,134.2
"2016-06-10 00:03:30",1709218,2.714,177.1,2.59,0.191,25.71,110.613,26.47,27.59,23.2,0,111.5,12.97,27.31,139.1
"2016-06-10 00:04:00",1709219,2.587,185.1,3.712,0.249,25.77,110.6018,26.44,27.56,23.27,0,111.5,12.97,27.29,147.1
"2016-06-10 00:04:30",1709220,2.505,192.6,1.854,0.068,25.81,110.6023,26.44,27.55,23.02,0,111.5,12.97,27.29,154.6
"2016-06-10 00:05:00",1709221,2.268,183.3,14.65,0.164,25.83,110.6062,26.45,27.54,22.55,0,111.5,12.98,27.30,145.3
"2016-06-10 00:05:30",1709222,2.386,173.9,3.696,0.109,25.74,110.5908,26.41,27.5,22.87,0,111.5,12.98,27.26,135.9
"2016-06-10 00:06:00",1709223,2.239,180.3,2.031,0.225,25.79,110.5852,26.4,27.48,22.9,0,111.5,12.98,27.24,142.3
"2016-06-10 00:06:30",1709224,2.269,201.5,8.46,0.113,25.81,110.5919,26.42,27.48,22.98,0,111.5,12.98,27.26,163.5
"2016-06-10 00:07:00",1709225,2.274,185.4,4.698,0.151,25.76,110.5909,26.41,27.45,23.08,0,111.5,12.98,27.26,147.4
"2016-06-10 00:07:30",1709226,2.211,190.2,1.91,0.098,25.78,110.5777,26.38,27.46,23.14,0,111.5,12.98,27.22,152.2
"2016-06-10 00:08:00",1709227,2.245,192.1,2.994,0.093,25.79,110.5728,26.37,27.43,23.09,0,111.4,12.98,27.21,154.1
"2016-06-10 00:08:30",1709228,2.014,193.3,2.542,0.07,25.82,110.5688,26.36,27.42,23.01,0,111.4,12.98,27.20,155.3
"2016-06-10 00:09:00",1709229,2.049,199.2,5.744,0.098,25.82,110.5685,26.36,27.41,22.9,0,111.4,12.98,27.20,161.2
"2016-06-10 00:09:30",1709230,1.815,206.8,3.584,0.08,25.83,110.5643,26.34,27.38,22.96,0,111.4,12.98,27.19,168.8
"2016-06-10 00:10:00",1709231,1.779,204.1,6.609,0.075,25.78,110.5523,26.31,27.37,22.99,0,111.4,12.98,27.16,166.1
"2016-06-10 00:10:30",1709232,1.877,199.8,2.319,0.125,25.82,110.5441,26.29,27.35,22.97,0,111.4,12.98,27.14,161.8
"2016-06-10 00:11:00",1709233,1.831,204.7,3.175,0.065,25.75,110.5388,26.28,27.35,23.03,0,111.4,12.98,27.12,166.7
"2016-06-10 00:11:30",1709234,1.702,209.4,1.37,0.042,25.75,110.5352,26.27,27.34,23.18,0,111.4,12.99,27.11,171.4
"2016-06-10 00:12:00",1709235,1.681,210.4,3.266,0.039,25.81,110.5352,26.27,27.34,23.16,0,111.4,12.99,27.11,172.4
"2016-06-10 00:12:30",1709236,1.624,209.9,1.672,0.039,25.89,110.534,26.27,27.32,23.13,0,111.4,12.99,27.11,171.9
"2016-06-10 00:13:00",1709237,1.721,202.6,2.957,0.063,25.82,110.5315,26.26,27.3,23.09,0,111.4,12.98,27.10,164.6
"2016-06-10 00:13:30",1709238,1.768,202.8,2.794,0.073,25.82,110.5245,26.24,27.3,23.03,0,111.4,12.97,27.09,164.8
"2016-06-10 00:14:00",1709239,1.752,202.7,2.334,0.108,25.79,110.5193,26.23,27.28,22.94,0,111.4,12.98,27.07,164.7
"2016-06-10 00:14:30",1709240,1.761,199.5,1.163,0.073,25.78,110.5176,26.22,27.27,22.89,0,111.4,12.97,27.07,161.5
"2016-06-10 00:15:00",1709241,1.672,196.8,1.827,0.058,25.76,110.5243,26.24,27.27,22.91,0,111.4,12.97,27.09,158.8
"2016-06-10 00:15:30",1709242,1.744,196.5,2.789,0.111,25.69,110.5282,26.25,27.27,22.95,0,111.4,12.98,27.10,158.5
"2016-06-10 00:16:00",1709243,1.71,198.6,2.812,0.082,25.79,110.5291,26.25,27.25,23.17,0,111.4,12.98,27.10,160.6
"2016-06-10 00:16:30",1709244,1.719,198.7,1.893,0.059,25.79,110.5294,26.26,27.24,23.18,0,111.4,12.98,27.10,160.7
"2016-06-10 00:17:00",1709245,1.605,192.1,1.911,0.062,25.8,110.5294,26.26,27.25,23.18,0,111.4,12.98,27.10,154.1
"2016-06-10 00:17:30",1709246,1.695,200.6,3.804,0.05,25.78,110.5246,26.24,27.24,23.2,0,111.4,12.98,27.09,162.6
"2016-06-10 00:18:00",1709247,1.637,203,1.719,0.05,25.77,110.5145,26.22,27.23,23.18,0,111.4,12.98,27.06,165.0
"2016-06-10 00:18:30",1709248,1.952,198.8,3.253,0.141,25.82,110.512,26.21,27.22,23.17,0,111.4,12.99,27.05,160.8
"2016-06-10 00:19:00",1709249,1.885,193.6,3.537,0.136,25.74,110.5067,26.2,27.23,23.27,0,111.4,12.99,27.04,155.6
"2016-06-10 00:19:30",1709250,1.91,200,2.097,0.098,25.72,110.505,26.19,27.21,23.32,0,111.4,12.99,27.04,162.0
"2016-06-10 00:20:00",1709251,1.845,198.3,3.824,0.068,25.71,110.505,26.19,27.21,23.36,0,111.4,12.99,27.04,160.3
"2016-06-10 00:20:30",1709252,1.887,193.2,2.195,0.108,25.71,110.505,26.19,27.22,23.29,0,111.4,12.99,27.04,155.2
"2016-06-10 00:21:00",1709253,1.971,197.4,1.129,0.054,25.76,110.5042,26.19,27.2,23.19,0,111.4,12.99,27.03,159.4
"2016-06-10 00:21:30",1709254,2.141,197.8,2.07,0.141,25.87,110.5006,26.18,27.2,23.14,0,111.4,12.99,27.02,159.8
"2016-06-10 00:22:00",1709255,2.181,199.4,2.444,0.078,25.86,110.4941,26.16,27.2,23.12,0,111.4,12.99,27.01,161.4
"2016-06-10 00:22:30",1709256,2.469,199.9,1.557,0.158,25.81,110.4868,26.15,27.19,23.14,0,111.4,12.99,26.99,161.9
"2016-06-10 00:23:00",1709257,2.485,195.6,1.188,0.076,25.79,110.4809,26.13,27.19,23.13,0,111.4,12.99,26.97,157.6
"2016-06-10 00:23:30",1709258,2.531,195,2.158,0.135,25.81,110.4773,26.12,27.19,23.19,0,111.4,12.99,26.96,157.0
"2016-06-10 00:24:00",1709259,1.767,196.5,3.163,0.193,25.82,110.4722,26.11,27.17,23.21,0,111.4,12.99,26.95,158.5
"2016-06-10 00:24:30",1709260,1.995,201.8,3.809,0.112,25.79,110.4714,26.11,27.17,23.24,0,111.4,12.99,26.95,163.8
"2016-06-10 00:25:00",1709261,1.917,205.9,3.931,0.082,25.76,110.4714,26.11,27.17,23.25,0,111.4,12.99,26.95,167.9
"2016-06-10 00:25:30",1709262,2.153,212.8,3.637,0.121,25.8,110.4711,26.11,27.15,23.29,0,111.4,12.99,26.95,174.8
"2016-06-10 00:26:00",1709263,2.112,213.4,3.91,0.075,25.72,110.4745,26.11,27.16,23.34,0,111.4,12.99,26.96,175.4
"2016-06-10 00:26:30",1709264,2.294,200.6,1.087,0.104,25.85,110.4739,26.11,27.16,23.31,0,111.4,12.99,26.96,162.6
"2016-06-10 00:27:00",1709265,2.495,202.8,1.161,0.083,25.68,110.4764,26.12,27.14,23.24,0,111.4,12.99,26.96,164.8
"2016-06-10 00:27:30",1709266,2.439,197.2,3.847,0.092,25.72,110.471,26.1,27.14,23.22,0,111.4,12.99,26.95,159.2
"2016-06-10 00:28:00",1709267,2.247,197.2,2.85,0.114,25.87,110.476,26.12,27.14,23.24,0,111.4,12.99,26.96,159.2
"2016-06-10 00:28:30",1709268,2.436,200.2,1.683,0.068,25.79,110.4726,26.11,27.13,23.2,0,111.4,12.99,26.95,162.2
"2016-06-10 00:29:00",1709269,2.468,200.2,2.131,0.067,25.76,110.4729,26.11,27.14,23.21,0,111.4,12.99,26.95,162.2
"2016-06-10 00:29:30",1709270,2.31,197.6,1.743,0.13,25.79,110.4692,26.1,27.14,23.18,0,111.4,12.99,26.94,159.6
"2016-06-10 00:30:00",1709271,2.091,201.5,1.706,0.125,25.81,110.4683,26.1,27.11,23.17,0,111.4,13,26.94,163.5
"2016-06-10 00:30:30",1709272,2.037,205.3,1.98,0.047,25.73,110.4693,26.1,27.12,23.19,0,111.4,12.99,26.94,167.3
"2016-06-10 00:31:00",1709273,2.188,202.5,2.163,0.121,25.81,110.4727,26.11,27.11,23.23,0,111.4,12.99,26.95,164.5
"2016-06-10 00:31:30",1709274,2.386,203.5,1.37,0.05,25.75,110.4737,26.11,27.11,23.21,0,111.4,12.99,26.95,165.5
"2016-06-10 00:32:00",1709275,2.298,203.8,1.189,0.091,25.79,110.4749,26.11,27.11,23.19,0,111.4,12.99,26.96,165.8
"2016-06-10 00:32:30",1709276,2.214,205.2,2.06,0.093,25.88,110.4749,26.11,27.11,23.2,0,111.4,12.99,26.96,167.2
"2016-06-10 00:33:00",1709277,2.088,210.5,1.715,0.069,25.74,110.4749,26.11,27.11,23.26,0,111.3,12.99,26.96,172.5
"2016-06-10 00:33:30",1709278,2.089,210.5,4.927,0.22,25.76,110.4749,26.11,27.12,23.26,0,111.3,12.99,26.96,172.5
"2016-06-10 00:34:00",1709279,2.318,205.4,1.561,0.064,25.77,110.4749,26.11,27.12,23.2,0,111.4,12.99,26.96,167.4
"2016-06-10 00:34:30",1709280,2.538,205.4,1.95,0.111,25.76,110.4749,26.11,27.09,23.13,0,111.4,12.99,26.96,167.4
"2016-06-10 00:35:00",1709281,2.518,198.7,3.106,0.122,25.82,110.4749,26.11,27.1,23.14,0,111.3,12.99,26.96,160.7
"2016-06-10 00:35:30",1709282,2.535,201.5,1.584,0.047,25.75,110.4743,26.11,27.1,23.11,0,111.3,12.99,26.96,163.5
"2016-06-10 00:36:00",1709283,2.45,202.1,1.595,0.089,25.82,110.4715,26.11,27.1,23.2,0,111.3,12.99,26.95,164.1
"2016-06-10 00:36:30",1709284,2.457,201.9,2.025,0.108,25.79,110.4645,26.09,27.09,23.48,0,111.3,13,26.93,163.9
"2016-06-10 00:37:00",1709285,2.442,196.7,1.629,0.098,25.82,110.4581,26.07,27.09,23.47,0,111.4,13,26.91,158.7
"2016-06-10 00:37:30",1709286,2.525,199.9,0.918,0.08,25.76,110.4538,26.06,27.1,23.43,0,111.4,13,26.90,161.9
"2016-06-10 00:38:00",1709287,2.382,202.8,1.707,0.048,25.83,110.4496,26.05,27.1,23.42,0,111.4,13,26.89,164.8
"2016-06-10 00:38:30",1709288,2.542,203.2,1.176,0.136,25.74,110.4485,26.05,27.09,23.54,0,111.4,13,26.89,165.2
"2016-06-10 00:39:00",1709289,2.494,203.4,1.299,0.126,25.73,110.4449,26.04,27.1,23.63,0,111.3,13,26.88,165.4
"2016-06-10 00:39:30",1709290,2.562,198.9,2.194,0.128,25.84,110.4423,26.03,27.09,23.71,0,111.4,13,26.87,160.9
"2016-06-10 00:40:00",1709291,2.469,208.4,4.383,0.27,25.92,110.4415,26.03,27.09,23.53,0,111.3,13,26.87,170.4
"2016-06-10 00:40:30",1709292,2.246,202.7,3.174,0.093,25.92,110.4434,26.03,27.08,23.41,0,111.3,13.01,26.88,164.7
"2016-06-10 00:41:00",1709293,2.135,204.1,3.391,0.065,25.93,110.4431,26.03,27.09,23.47,0,111.3,13,26.88,166.1
"2016-06-10 00:41:30",1709294,2.29,205.6,2.388,0.081,25.88,110.4452,26.04,27.08,23.38,0,111.3,13,26.88,167.6
"2016-06-10 00:42:00",1709295,2.37,211.2,2.296,0.088,25.89,110.449,26.05,27.08,23.34,0,111.3,13.01,26.89,173.2
"2016-06-10 00:42:30",1709296,2.497,209,4.221,0.162,25.92,110.4524,26.06,27.07,23.39,0,111.3,13.01,26.90,171.0
"2016-06-10 00:43:00",1709297,2.811,214.4,2.773,0.262,25.88,110.4555,26.07,27.08,23.47,0,111.4,13.01,26.91,176.4
"2016-06-10 00:43:30",1709298,2.961,216.9,1.414,0.251,25.92,110.4582,26.07,27.05,23.48,0,111.3,13,26.91,178.9
"2016-06-10 00:44:00",1709299,2.584,214.7,2.191,0.079,25.91,110.4507,26.05,27.06,23.6,0,111.3,13.01,26.90,176.7
"2016-06-10 00:44:30",1709300,2.476,212.6,2.431,0.056,25.89,110.4474,26.04,27.04,23.75,0,111.3,13.01,26.89,174.6
"2016-06-10 00:45:00",1709301,2.679,214.3,2.202,0.115,25.94,110.4436,26.03,27.05,23.73,0,111.3,13.01,26.88,176.3
"2016-06-10 00:45:30",1709302,2.859,213.5,1.157,0.064,25.87,110.4408,26.03,27.04,23.62,0,111.3,13.01,26.87,175.5
"2016-06-10 00:46:00",1709303,2.82,215.3,1.995,0.07,25.92,110.4368,26.02,27.05,23.58,0,111.3,13.01,26.86,177.3
"2016-06-10 00:46:30",1709304,2.879,213.2,1.086,0.05,25.93,110.4367,26.02,27.04,23.54,0,111.3,13.01,26.86,175.2
"2016-06-10 00:47:00",1709305,2.866,216.4,1.92,0.046,25.9,110.4382,26.02,27.04,23.55,0,111.3,13.01,26.86,178.4
"2016-06-10 00:47:30",1709306,2.876,217.7,0.96,0.029,25.96,110.4419,26.03,27.04,23.55,0,111.3,13.01,26.87,179.7
"2016-06-10 00:48:00",1709307,2.744,219.2,1.516,0.08,25.92,110.4416,26.03,27.04,23.52,0,111.3,13,26.87,181.2
"2016-06-10 00:48:30",1709308,2.8,218.1,1.282,0.084,25.93,110.4441,26.04,27.03,23.53,0,111.3,13,26.88,180.1
"2016-06-10 00:49:00",1709309,2.862,214.2,1.132,0.053,25.92,110.4441,26.04,27.03,23.49,0,111.3,13,26.88,176.2
"2016-06-10 00:49:30",1709310,2.618,215.9,2.521,0.198,25.98,110.4447,26.04,27.03,23.49,0,111.3,13,26.88,177.9
"2016-06-10 00:50:00",1709311,2.555,221.6,3.254,0.131,25.95,110.4447,26.04,27.02,23.49,0,111.3,13,26.88,183.6
"2016-06-10 00:50:30",1709312,2.465,223.8,1.336,0.074,25.94,110.4445,26.04,27.02,23.5,0,111.3,13,26.88,185.8
"2016-06-10 00:51:00",1709313,2.468,224,1.88,0.087,25.97,110.4391,26.02,27,23.54,0,111.3,13,26.87,186.0
"2016-06-10 00:51:30",1709314,2.341,223.3,3.813,0.1,25.97,110.4301,26,27.01,23.48,0,111.3,13,26.84,185.3
"2016-06-10 00:52:00",1709315,2.933,220.1,4.499,0.13,25.95,110.4245,25.99,27.02,23.45,0,111.3,13,26.83,182.1
"2016-06-10 00:52:30",1709316,3.045,225.3,3.375,0.152,25.95,110.42,25.97,27,23.42,0,111.3,13,26.82,187.3
"2016-06-10 00:53:00",1709317,3.08,221.9,2.259,0.093,25.95,110.4167,25.97,26.99,23.41,0,111.3,13,26.81,183.9
"2016-06-10 00:53:30",1709318,3.138,223.1,2.231,0.247,25.96,110.4136,25.96,26.99,23.41,0,111.3,13.01,26.80,185.1
"2016-06-10 00:54:00",1709319,3.351,218,3.288,0.146,25.91,110.411,25.95,27.01,23.4,0,111.3,13.01,26.79,180.0
"2016-06-10 00:54:30",1709320,3.32,213.4,2.323,0.059,25.96,110.411,25.95,26.99,23.43,0,111.3,13.01,26.79,175.4
"2016-06-10 00:55:00",1709321,3.279,210.6,1.615,0.087,25.93,110.411,25.95,26.98,23.43,0,111.3,13.01,26.79,172.6
"2016-06-10 00:55:30",1709322,3.272,212.3,1.826,0.165,25.95,110.411,25.95,26.97,23.41,0,111.3,13.01,26.79,174.3
"2016-06-10 00:56:00",1709323,3.246,215.9,1.338,0.078,26.04,110.411,25.95,26.98,23.35,0,111.3,13.01,26.79,177.9
"2016-06-10 00:56:30",1709324,3.437,218.8,1.511,0.109,25.96,110.411,25.95,26.98,23.36,0,111.3,13.01,26.79,180.8
"2016-06-10 00:57:00",1709325,3.601,219.4,1.458,0.122,25.98,110.411,25.95,26.98,23.28,0,111.3,13.01,26.79,181.4
"2016-06-10 00:57:30",1709326,3.28,218.8,1.027,0.063,25.97,110.411,25.95,26.96,23.28,0,111.3,13.01,26.79,180.8
"2016-06-10 00:58:00",1709327,3.052,215.8,1.312,0.071,25.95,110.411,25.95,26.97,23.3,0,111.3,13.01,26.79,177.8
"2016-06-10 00:58:30",1709328,3.009,215.2,0.982,0.052,25.96,110.4108,25.95,26.98,23.29,0,111.3,13.01,26.79,177.2
"2016-06-10 00:59:00",1709329,2.972,216,1.924,0.061,25.95,110.4094,25.95,26.96,23.3,0,111.3,13.01,26.79,178.0
"2016-06-10 00:59:30",1709330,3.223,218,1.703,0.197,25.98,110.4057,25.94,26.96,23.27,0,111.3,13.01,26.78,180.0
"2016-06-10 01:00:00",1709331,3.247,219.6,3.731,0.11,25.99,110.4012,25.93,26.96,23.21,0,111.3,13.01,26.77,181.6
"2016-06-10 01:00:30",1709332,3.237,220.9,3.624,0.088,26.01,110.3925,25.9,26.96,23.2,0,111.3,13.01,26.75,182.9
"2016-06-10 01:01:00",1709333,3.181,217.5,1.645,0.168,25.96,110.3889,25.89,26.95,23.19,0,111.3,13.01,26.74,179.5
"2016-06-10 01:01:30",1709334,2.929,223.3,2.638,0.166,25.94,110.3881,25.89,26.96,23.2,0,111.3,13.01,26.73,185.3
"2016-06-10 01:02:00",1709335,3.093,225,1.982,0.141,25.96,110.3879,25.89,26.94,23.18,0,111.3,13.01,26.73,187.0
"2016-06-10 01:02:30",1709336,3.253,225.1,1.406,0.072,26,110.3903,25.9,26.95,23.18,0,111.3,13.01,26.74,187.1
"2016-06-10 01:03:00",1709337,3.17,227.2,2.014,0.101,26,110.3909,25.9,26.95,23.17,0,111.3,13.01,26.74,189.2
"2016-06-10 01:03:30",1709338,2.718,227.7,2.564,0.227,26,110.3966,25.91,26.95,23.17,0,111.3,13.01,26.76,189.7
"2016-06-10 01:04:00",1709339,2.844,221.5,4.038,0.152,26.03,110.3984,25.92,26.95,23.18,0,111.3,13.01,26.76,183.5
"2016-06-10 01:04:30",1709340,2.787,224.2,2.483,0.158,26.01,110.4022,25.93,26.94,23.18,0,111.3,13.01,26.77,186.2
"2016-06-10 01:05:00",1709341,2.974,225.1,1.433,0.091,25.98,110.404,25.93,26.94,23.18,0,111.3,13.01,26.78,187.1
"2016-06-10 01:05:30",1709342,2.728,230.2,3.331,0.108,25.97,110.4053,25.94,26.94,23.19,0,111.3,13.01,26.78,192.2
"2016-06-10 01:06:00",1709343,2.707,227.8,1.718,0.131,26.03,110.4049,25.94,26.92,23.19,0,111.3,13.02,26.78,189.8
"2016-06-10 01:06:30",1709344,2.758,229.7,1.691,0.195,26.07,110.4053,25.94,26.94,23.21,0,111.3,13.02,26.78,191.7
"2016-06-10 01:07:00",1709345,2.593,232.1,4.487,0.216,25.97,110.4062,25.94,26.94,23.19,0,111.3,13.02,26.78,194.1
"2016-06-10 01:07:30",1709346,2.563,235.4,2.715,0.176,26,110.4077,25.94,26.93,23.2,0,111.3,13.02,26.78,197.4
"2016-06-10 01:08:00",1709347,2.491,244,2.825,0.156,26.01,110.4071,25.94,26.93,23.19,0,111.3,13.02,26.78,206.0
"2016-06-10 01:08:30",1709348,2.31,241.1,3.642,0.078,26.08,110.4115,25.95,26.93,23.18,0,111.3,13.02,26.79,203.1
"2016-06-10 01:09:00",1709349,2.502,248.6,2.923,0.194,26.1,110.4118,25.95,26.93,23.18,0,111.3,13.02,26.80,210.6
"2016-06-10 01:09:30",1709350,2.679,253.4,1.666,0.057,26.21,110.4127,25.96,26.94,23.08,0,111.3,13.02,26.80,215.4
"2016-06-10 01:10:00",1709351,2.653,253.8,1.423,0.051,26.22,110.4122,25.95,26.94,23.03,0,111.3,13.02,26.80,215.8
"2016-06-10 01:10:30",1709352,2.612,257.8,1.607,0.066,26.11,110.4114,25.95,26.92,23.01,0,111.3,13.02,26.79,219.8
"2016-06-10 01:11:00",1709353,2.788,264.4,2.331,0.092,26.24,110.4084,25.94,26.94,23,0,111.3,13.02,26.79,226.4
"2016-06-10 01:11:30",1709354,2.802,265.7,1.39,0.093,26.18,110.407,25.94,26.92,22.97,0,111.3,13.02,26.78,227.7
"2016-06-10 01:12:00",1709355,2.661,262.9,1.897,0.068,26.2,110.4039,25.93,26.93,22.97,0,111.3,13.02,26.77,224.9
"2016-06-10 01:12:30",1709356,2.657,265.4,0.997,0.052,26.15,110.4042,25.93,26.93,22.98,0,111.3,13.02,26.78,227.4
"2016-06-10 01:13:00",1709357,2.746,264.6,0.357,0.06,26.25,110.4033,25.93,26.93,22.99,0,111.3,13.02,26.77,226.6
"2016-06-10 01:13:30",1709358,2.658,267.1,1.524,0.095,26.19,110.4019,25.93,26.92,22.97,0,111.3,13.02,26.77,229.1
"2016-06-10 01:14:00",1709359,2.763,270.1,0.877,0.07,26.17,110.3988,25.92,26.92,22.97,0,111.3,13.02,26.76,232.1
"2016-06-10 01:14:30",1709360,2.845,272.6,1.872,0.062,26.23,110.3983,25.92,26.92,22.98,0,111.3,13.02,26.76,234.6
"2016-06-10 01:15:00",1709361,2.876,273.9,1.148,0.036,26.16,110.3927,25.9,26.92,22.94,0,111.3,13.02,26.75,235.9
"2016-06-10 01:15:30",1709362,2.994,275.7,0.812,0.059,26.11,110.3907,25.9,26.93,22.91,0,111.3,13.02,26.74,237.7
"2016-06-10 01:16:00",1709363,3.218,277.8,0.899,0.054,26.07,110.391,25.9,26.92,22.93,0,111.3,13.02,26.74,239.8
"2016-06-10 01:16:30",1709364,3.381,280.6,0.949,0.072,26.15,110.387,25.89,26.92,22.94,0,111.3,13.02,26.73,242.6
"2016-06-10 01:17:00",1709365,3.755,284.6,1.938,0.163,26.01,110.396,25.91,26.9,22.98,0,111.3,13.02,26.75,246.6
"2016-06-10 01:17:30",1709366,4.478,285.7,1.62,0.153,25.93,110.4101,25.95,26.91,23.24,0,111.3,13.02,26.79,247.7
"2016-06-10 01:18:00",1709367,4.853,295.2,6.891,0.522,25.51,110.4146,25.96,26.92,24.29,0,111.3,13.02,26.80,257.2
"2016-06-10 01:18:30",1709368,6.248,303,3.178,0.345,25.38,110.4126,25.95,26.92,24.34,0,111.3,13.02,26.80,265.0
"2016-06-10 01:19:00",1709369,6.501,307.7,4.407,0.275,25.38,110.4081,25.94,26.94,24.45,0,111.3,13.02,26.79,269.7
"2016-06-10 01:19:30",1709370,6.764,305.3,3.748,0.474,25.48,110.4025,25.93,26.92,24.58,0,111.3,13.02,26.77,267.3
"2016-06-10 01:20:00",1709371,7.817,314.6,1.717,0.29,25.74,110.3879,25.89,26.91,24.55,0,111.3,13.02,26.73,276.6
"2016-06-10 01:20:30",1709372,8.54,314.9,0.945,0.308,25.87,110.3809,25.87,26.9,24.38,0,111.3,13.02,26.72,276.9
"2016-06-10 01:21:00",1709373,8.28,310.6,2.508,0.374,25.88,110.3809,25.87,26.9,24.21,0,111.3,13.02,26.72,272.6
"2016-06-10 01:21:30",1709374,7.841,312.6,2.318,0.372,25.93,110.3809,25.87,26.88,24.17,0,111.3,13.02,26.72,274.6
"2016-06-10 01:22:00",1709375,7,310.5,2.464,0.405,25.93,110.3786,25.87,26.89,23.97,0,111.3,13.02,26.71,272.5
"2016-06-10 01:22:30",1709376,7.916,308.1,3.357,0.454,25.68,110.3632,25.83,26.87,24.06,0,111.3,13.02,26.67,270.1
"2016-06-10 01:23:00",1709377,7.463,303,5.149,0.488,25.69,110.3514,25.8,26.86,24.16,0,111.3,13.02,26.64,265.0
"2016-06-10 01:23:30",1709378,8.18,306.3,7.023,1.731,25.44,110.3474,25.79,26.86,24.13,0,111.3,13.02,26.63,268.3
"2016-06-10 01:24:00",1709379,10.8,309.3,3.399,0.983,24.88,110.3472,25.79,26.83,23.89,0,111.3,13.02,26.63,271.3
"2016-06-10 01:24:30",1709380,12.43,309.1,2.306,0.433,25.04,110.3323,25.75,26.84,23.02,0,111.3,13.02,26.59,271.1
"2016-06-10 01:25:00",1709381,11.97,312.2,2.476,0.819,25.17,110.3134,25.7,26.81,23.21,0,111.3,13.02,26.54,274.2
"2016-06-10 01:25:30",1709382,12.52,309.1,2.183,0.493,25.73,110.2946,25.65,26.78,22.38,0,111.3,13.02,26.49,271.1
"2016-06-10 01:26:00",1709383,13.15,309.2,1.779,0.669,25.46,110.2801,25.61,26.72,22,0,111.3,13.02,26.46,271.2
"2016-06-10 01:26:30",1709384,12.42,308.2,3.384,0.679,25.59,110.2587,25.56,26.7,22.33,0,111.3,13.02,26.40,270.2
"2016-06-10 01:27:00",1709385,12.51,312,1.638,0.311,25.61,110.2463,25.53,26.67,22.51,0,111.3,13.02,26.37,274.0
"2016-06-10 01:27:30",1709386,11.89,309.4,1.701,0.299,25.55,110.2408,25.51,26.62,21.95,0,111.3,13.02,26.35,271.4
"2016-06-10 01:28:00",1709387,12.1,309.6,1.696,0.419,25.63,110.2218,25.46,26.6,22.74,0,111.3,13.02,26.31,271.6
"2016-06-10 01:28:30",1709388,11.61,308.7,2.39,0.578,25.83,110.2195,25.46,26.57,22.68,0,111.3,13.02,26.30,270.7
"2016-06-10 01:29:00",1709389,10.58,307.7,1.382,0.268,25.9,110.2191,25.46,26.55,23.53,0,111.3,13.02,26.30,269.7
"2016-06-10 01:29:30",1709390,11.79,311.5,2.758,0.612,25.85,110.2247,25.47,26.53,22.51,0,111.3,13.02,26.31,273.5
"2016-06-10 01:30:00",1709391,11.36,311,3.145,0.33,25.57,110.2294,25.48,26.52,22.1,0,111.3,13.03,26.32,273.0
"2016-06-10 01:30:30",1709392,11.68,313,3.153,0.397,25.56,110.2303,25.49,26.51,21.52,0,111.3,13.03,26.33,275.0
"2016-06-10 01:31:00",1709393,12.26,309,2.884,0.512,25.57,110.2335,25.49,26.49,20.39,0,111.3,13.03,26.34,271.0
"2016-06-10 01:31:30",1709394,12.42,307.7,1.507,0.35,25.9,110.2347,25.5,26.49,20.94,0,111.3,13.03,26.34,269.7
"2016-06-10 01:32:00",1709395,11.54,308.3,1.431,0.337,25.93,110.2365,25.5,26.47,20.74,0,111.3,13.03,26.34,270.3
"2016-06-10 01:32:30",1709396,12.22,309.4,2.247,0.286,25.33,110.2396,25.51,26.48,19.57,0,111.3,13.03,26.35,271.4
"2016-06-10 01:33:00",1709397,12.91,315,1.753,0.394,25.55,110.2396,25.51,26.48,21.28,0,111.3,13.03,26.35,277.0
"2016-06-10 01:33:30",1709398,11.59,317.9,2.084,0.388,25.74,110.2399,25.51,26.48,21.22,0,111.3,13.03,26.35,279.9
"2016-06-10 01:34:00",1709399,11.79,321.6,2.58,0.4,25.74,110.2414,25.51,26.47,21.25,0,111.3,13.03,26.36,283.6
"2016-06-10 01:34:30",1709400,12.73,311,3.178,0.389,25.77,110.2383,25.51,26.46,21.41,0,111.3,13.03,26.35,273.0
"2016-06-10 01:35:00",1709401,13.15,310.4,1.505,0.516,25.78,110.2326,25.49,26.46,21,0,111.3,13.03,26.33,272.4
"2016-06-10 01:35:30",1709402,11.55,311.2,3.916,0.806,11.89,110.227,25.48,26.45,21.04,0,111.3,13.03,26.32,273.2
"2016-06-10 01:36:00",1709403,10.87,307.4,2.16,0.53,25.91,110.2224,25.47,26.43,19.78,0,111.2,13.03,26.31,269.4
"2016-06-10 01:36:30",1709404,10.06,308.5,3.146,0.702,26.03,110.22,25.46,26.43,20.23,0,111.3,13.03,26.30,270.5
"2016-06-10 01:37:00",1709405,10.39,303.4,3.863,0.696,26.12,110.2158,25.45,26.43,19.88,0,111.3,13.03,26.29,265.4
"2016-06-10 01:37:30",1709406,9.13,297.5,3.931,0.381,26.18,110.2158,25.45,26.43,20.97,0,111.3,13.03,26.29,259.5
"2016-06-10 01:38:00",1709407,8.32,300,3.862,0.618,26.26,110.2158,25.45,26.43,20.52,0,111.2,13.03,26.29,262.0
"2016-06-10 01:38:30",1709408,8.32,302.6,2.658,0.961,31.14,110.1958,25.4,26.42,20.12,0,111.2,13.03,26.24,264.6
"2016-06-10 01:39:00",1709409,9.83,297.1,1.718,0.575,-5.278,110.1821,25.36,26.4,19,0,111.2,13.03,26.20,259.1
"2016-06-10 01:39:30",1709410,9.13,301.4,3.039,0.342,27.15,110.1745,25.34,26.38,18.98,0,111.2,13.03,26.18,263.4
"2016-06-10 01:40:00",1709411,8.57,301.8,1.679,0.421,27.26,110.1495,25.28,26.35,18.88,0,111.2,13.03,26.12,263.8
"2016-06-10 01:40:30",1709412,8.43,294.7,2.647,0.276,26.98,110.1437,25.26,26.32,19.15,0,111.2,13.03,26.10,256.7
"2016-06-10 01:41:00",1709413,8.79,287.4,1.861,0.31,26.62,110.1195,25.2,26.3,19.09,0,111.2,13.03,26.04,249.4
"2016-06-10 01:41:30",1709414,8.74,286.8,3.556,0.363,26.49,110.1188,25.2,26.28,19.02,0,111.2,13.03,26.04,248.8
"2016-06-10 01:42:00",1709415,8.81,292,1.978,0.176,26.33,110.1068,25.17,26.26,19.16,0,111.2,13.03,26.01,254.0
"2016-06-10 01:42:30",1709416,8.56,289.3,2.75,0.233,26.36,110.105,25.16,26.21,18.86,0,111.2,13.03,26.00,251.3
"2016-06-10 01:43:00",1709417,9.27,286.5,2.065,0.212,26.12,110.0938,25.14,26.19,19.09,0,111.2,13.03,25.98,248.5
"2016-06-10 01:43:30",1709418,9.43,291.6,4.301,0.628,26.07,110.075,25.09,26.15,19.47,0,111.2,13.03,25.93,253.6
"2016-06-10 01:44:00",1709419,10.36,285.8,7.039,0.812,25.54,110.0726,25.08,26.13,19.34,0,111.2,13.03,25.92,247.8
"2016-06-10 01:44:30",1709420,8.51,294,7.344,0.406,25.66,110.0493,25.02,26.08,19.23,0,111.2,13.03,25.86,256.0
"2016-06-10 01:45:00",1709421,8.41,295.9,1.714,0.231,25.95,110.0475,25.02,26.07,19.51,0,111.2,13.03,25.86,257.9
"2016-06-10 01:45:30",1709422,7.466,294,3.352,0.834,25.83,110.0233,24.95,26.04,18.86,0,111.2,13.03,25.79,256.0
"2016-06-10 01:46:00",1709423,7.043,308.1,8.25,0.342,25.28,110.0169,24.94,26,19.07,0,111.2,13.03,25.78,270.1
"2016-06-10 01:46:30",1709424,7.329,313.1,4.176,1.098,24.88,110.0169,24.94,25.98,20.58,0,111.2,13.04,25.78,275.1
"2016-06-10 01:47:00",1709425,8.3,308,5.05,0.73,22.15,110.0011,24.9,25.96,20.77,0,111.2,13.04,25.74,270.0